{"data":{"norad_id":66203,"intl_designator":"2025-243AC","name":"STARLINK-35548","alt_names":[],"object_type":"PAYLOAD","status":"ACTIVE","operator":null,"country":"US","launch_date":"2025-10-26","launch_site_code":"AFETR","launch_vehicle":null,"mission":null,"orbit_class":"UNKNOWN","rcs_meters":null,"size_class":null,"mass_kg":null,"dimensions":null,"purposes":["comms"],"wikipedia_slug":null,"has_3d_model":false,"image_url":null,"decayed_at":null,"tle_current":{"epoch":"2026-05-24T15:36:20.627136Z","epoch_age_seconds":109287,"freshness":"FRESH","line1":"1 66203U 25243AC  26144.65023874  .00027263  00000+0  92947-3 0  9998","line2":"2 66203  53.1580 252.4217 0001023  80.7255 279.3861 15.30191762 32283","mean_motion":15.30191762,"eccentricity":0.0001023,"inclination_deg":53.158,"raan_deg":252.4217,"arg_perigee_deg":80.7255,"mean_anomaly_deg":279.3861,"bstar":0.00092947,"rev_number":3228,"period_min":94.10585233565,"perigee_km":474.53856627976,"apogee_km":475.94076714577,"semimajor_km":6853.3766667128,"source":"CELESTRAK","updated_at":"2026-05-25T13:38:21.125540Z"}}}